Weather History for Cardiff-Wales, United Kingdom

Change the Weather History Date:

Wednesday, June 12, 2013

  Actual Average Record
Temperature  
Mean Temperature 58 °F -  
Max Temperature 60 °F 66 °F 69 °F (2014)
Min Temperature 55 °F 52 °F 41 °F (1998)
Degree Days  
Heating Degree Days 8    
Growing Degree Days 8 (Base 50)    
Moisture  
Dew Point 55 °F    
Average Humidity 90    
Maximum Humidity 100    
Minimum Humidity 77    
Precipitation  
Precipitation 0.00 in 0.09 in - ()
Sea Level Pressure  
Sea Level Pressure 29.77 in    
Wind  
Wind Speed 9 mph ()    
Max Wind Speed 15 mph    
Max Gust Speed -    
Visibility 6.1 miles    
Events Rain    
Averages and records for this station are not official NWS values.
T = Trace of Precipitation, MM = Missing Value Source: Averaged Metar Reports

Daily Weather History Graph

Daily Weather History Graph

Search for Another Location

Airport:

Trip Planner

Search our weather history database for the weather conditions in past years. The results will help you decide how hot, cold, wet, or windy it might be!

Date:

Astronomy

Jun. 12, 2013 Rise Set
Actual Time 4:56 AM BST 9:30 PM BST
Civil Twilight 4:09 AM BST 10:17 PM BST
Nautical Twilight 2:57 AM BST 11:29 PM BST
Astronomical Twilight 1:45 AM BST 12:40 AM BST
Moon 8:42 AM BST (6/12) 11:34 PM BST (6/12)
Length of Visible Light 18h 07m
Length of Day
16h 33m
Waxing Crescent, 13% of the Moon is Illuminated
Jun 12
Waxing Crescent
Jun 16
First Quarter
Jun 23
Full
Jun 30
Last Quarter
Jul 8
New

Hourly Weather History & Observations

Time (BST) Temp. Dew Point Humidity Pressure Visibility Wind Dir Wind Speed Gust Speed Precip Events Conditions
12:20 AM 57.2 °F 55.4 °F 94% 29.80 in 6.2 mi South 12.7 mph - N/A   Mostly Cloudy
12:50 AM 57.2 °F 55.4 °F 94% 29.80 in 6.2 mi South 10.4 mph - N/A   Mostly Cloudy
1:20 AM 57.2 °F 55.4 °F 94% 29.77 in 6.2 mi South 11.5 mph - N/A   Mostly Cloudy
1:50 AM 57.2 °F 55.4 °F 94% 29.77 in 6.2 mi SSE 10.4 mph - N/A   Mostly Cloudy
2:20 AM 57.2 °F 55.4 °F 94% 29.77 in 6.2 mi SSE 8.1 mph - N/A   Mostly Cloudy
2:50 AM 59.0 °F 55.4 °F 88% 29.77 in 6.2 mi SSW 10.4 mph - N/A   Mostly Cloudy
3:20 AM 59.0 °F 55.4 °F 88% 29.74 in 6.2 mi SSW 10.4 mph - N/A   Mostly Cloudy
3:50 AM 59.0 °F 55.4 °F 88% 29.74 in 6.2 mi SSW 9.2 mph - N/A   Mostly Cloudy
4:20 AM 57.2 °F 55.4 °F 94% 29.74 in 6.2 mi SSW 9.2 mph - N/A   Mostly Cloudy
4:50 AM 57.2 °F 53.6 °F 88% 29.74 in 6.2 mi SSW 8.1 mph - N/A   Mostly Cloudy
5:20 AM 57.2 °F 55.4 °F 94% 29.74 in 6.2 mi SSW 8.1 mph - N/A   Mostly Cloudy
5:50 AM 57.2 °F 53.6 °F 88% 29.77 in 6.2 mi WSW 10.4 mph - N/A   Drizzle
6:20 AM 57.2 °F 53.6 °F 88% 29.77 in 6.2 mi WSW 13.8 mph - N/A   Mostly Cloudy
6:50 AM 55.4 °F 53.6 °F 94% 29.80 in 6.2 mi West 15.0 mph - N/A   Mostly Cloudy
7:20 AM 55.4 °F 51.8 °F 88% 29.80 in 6.2 mi WSW 13.8 mph - N/A   Mostly Cloudy
7:50 AM 57.2 °F 51.8 °F 82% 29.80 in 6.2 mi West 12.7 mph - N/A   Mostly Cloudy
8:20 AM 57.2 °F 51.8 °F 82% 29.83 in 6.2 mi West 15.0 mph - N/A   Mostly Cloudy
8:50 AM 57.2 °F 53.6 °F 88% 29.83 in 6.2 mi WSW 11.5 mph - N/A   Mostly Cloudy
9:20 AM 57.2 °F 53.6 °F 88% 29.83 in 6.2 mi WSW 11.5 mph - N/A   Mostly Cloudy
9:50 AM 59.0 °F 53.6 °F 82% 29.83 in 6.2 mi WSW 11.5 mph - N/A   Mostly Cloudy
10:20 AM 60.8 °F 53.6 °F 77% 29.83 in 6.2 mi West 11.5 mph - N/A   Mostly Cloudy
10:50 AM 60.8 °F 53.6 °F 77% 29.83 in 6.2 mi WSW 8.1 mph - N/A   Mostly Cloudy
11:20 AM 59.0 °F 53.6 °F 82% 29.83 in 6.2 mi SW 5.8 mph - N/A   Mostly Cloudy
11:50 AM 57.2 °F 55.4 °F 94% 29.83 in 6.2 mi SW 6.9 mph - N/A   Drizzle
12:20 PM 57.2 °F 55.4 °F 94% 29.83 in 6.2 mi WSW 5.8 mph - N/A   Mostly Cloudy
12:50 PM 59.0 °F 55.4 °F 88% 29.83 in 6.2 mi South 4.6 mph - N/A   Mostly Cloudy
1:20 PM 59.0 °F 55.4 °F 88% 29.83 in 6.2 mi South 4.6 mph - N/A   Mostly Cloudy
1:50 PM 59.0 °F 57.2 °F 94% 29.80 in 6.2 mi SSE 4.6 mph - N/A   Mostly Cloudy
2:20 PM 59.0 °F 57.2 °F 94% 29.77 in 6.2 mi SE 8.1 mph - N/A   Mostly Cloudy
2:50 PM 59.0 °F 57.2 °F 94% 29.77 in 6.2 mi SSE 12.7 mph - N/A   Drizzle
3:20 PM 59.0 °F 57.2 °F 94% 29.77 in 6.2 mi SSE 10.4 mph - N/A   Mostly Cloudy
3:50 PM 59.0 °F 57.2 °F 94% 29.74 in 6.2 mi SSE 6.9 mph - N/A   Mostly Cloudy
4:20 PM 60.8 °F 57.2 °F 88% 29.74 in 6.2 mi South 8.1 mph - N/A   Mostly Cloudy
4:50 PM 60.8 °F 57.2 °F 88% 29.74 in 6.2 mi SW 4.6 mph - N/A   Mostly Cloudy
5:20 PM 60.8 °F 57.2 °F 88% 29.74 in 6.2 mi SW 10.4 mph - N/A   Mostly Cloudy
5:50 PM 60.8 °F 57.2 °F 88% 29.74 in 6.2 mi SW 8.1 mph - N/A Rain Light Rain
6:20 PM 59.0 °F 57.2 °F 94% 29.74 in 3.1 mi SSW 9.2 mph - N/A Rain Rain
6:50 PM 59.0 °F 59.0 °F 100% 29.74 in 6.2 mi SSW 5.8 mph - N/A   Light Drizzle
7:20 PM 59.0 °F 57.2 °F 94% 29.74 in 6.2 mi SSW 11.5 mph - N/A   Overcast
7:50 PM 59.0 °F 57.2 °F 94% 29.74 in 6.2 mi SW 11.5 mph - N/A   Mostly Cloudy
8:20 PM 59.0 °F 57.2 °F 94% 29.74 in 6.2 mi West 9.2 mph - N/A   Mostly Cloudy
8:50 PM 57.2 °F 55.4 °F 94% 29.74 in 6.2 mi West 12.7 mph - N/A   Mostly Cloudy
9:20 PM 57.2 °F 53.6 °F 88% 29.74 in 6.2 mi West 13.8 mph - N/A   Mostly Cloudy
9:50 PM 57.2 °F 53.6 °F 88% 29.74 in 6.2 mi West 13.8 mph - N/A   Mostly Cloudy
10:20 PM 57.2 °F 53.6 °F 88% 29.77 in 6.2 mi WSW 11.5 mph - N/A   Mostly Cloudy
10:50 PM 55.4 °F 53.6 °F 94% 29.77 in 6.2 mi WSW 10.4 mph - N/A   Mostly Cloudy
11:20 PM 57.2 °F 51.8 °F 82% 29.74 in 6.2 mi SW 11.5 mph - N/A   Mostly Cloudy
11:50 PM 57.2 °F 51.8 °F 82% 29.74 in 6.2 mi SSW 9.2 mph - N/A   Mostly Cloudy